Weather History for KEYW - February, 2013

Change the Weather History Date:

Sunday, February 10, 2013

  Actual Average Record
Temperature  
Mean Temperature 76 °F 71 °F  
Max Temperature 79 °F 76 °F 84 °F (1959)
Min Temperature 73 °F 66 °F 49 °F (1895)
Degree Days  
Heating Degree Days 0 1  
Month to date heating degree days 0 10  
Since 1 July heating degree days 5 61  
Cooling Degree Days 11 6  
Month to date cooling degree days 71 60  
Year to date cooling degree days 362 225  
Growing Degree Days 24 (Base 50)    
Moisture  
Dew Point 65 °F    
Average Humidity 76    
Maximum Humidity 90    
Minimum Humidity 62    
Precipitation  
Precipitation 0.00 in 0.04 in 0.55 in (1908)
Month to date precipitation 0.00 0.51  
Year to date precipitation 0.29 2.55  
Snow  
Snow 0.00 in - - ()
Month to date snowfall 0.0  
Since 1 July snowfall 0.0  
Snow Depth 0.00 in    
Sea Level Pressure  
Sea Level Pressure 30.16 in    
Wind  
Wind Speed 17 mph (ESE)    
Max Wind Speed 22 mph    
Max Gust Speed 28 mph    
Visibility 10 miles    
Events      
T = Trace of Precipitation, MM = Missing Value Source: NWS Daily Summary

Daily Weather History Graph

Daily Weather History Graph

Search for Another Location

Airport or City:

Trip Planner

Search our weather history database for the weather conditions in past years. The results will help you decide how hot, cold, wet, or windy it might be!

Date:

Astronomy

Feb. 10, 2013 Rise Set
Actual Time 7:04 AM EST 6:18 PM EST
Civil Twilight 6:40 AM EST 6:42 PM EST
Nautical Twilight 6:13 AM EST 7:09 PM EST
Astronomical Twilight 5:46 AM EST 7:35 PM EST
Moon 7:00 AM EST (2/10) 6:56 PM EST (2/10)
Length of Visible Light 12h 01m
Length of Day
11h 14m
New Moon, 0% of the Moon is Illuminated
Feb 10
New Moon
Feb 17
First Quarter
Feb 25
Full
Mar 4
Last Quarter
Mar 11
New

Hourly Weather History & Observations

Time (EST) Temp. Dew Point Humidity Pressure Visibility Wind Dir Wind Speed Gust Speed Precip Events Conditions
12:05 AM 73.4 °F 66.2 °F 78% 30.14 in 10.0 mi East 12.7 mph - N/A   Scattered Clouds
12:53 AM 73.9 °F 66.9 °F 79% 30.13 in 10.0 mi East 15.0 mph - N/A   Mostly Cloudy
1:53 AM 73.9 °F 66.0 °F 76% 30.13 in 10.0 mi East 12.7 mph - N/A   Clear
2:53 AM 73.0 °F 66.0 °F 79% 30.12 in 10.0 mi East 12.7 mph - N/A   Clear
3:53 AM 73.0 °F 66.0 °F 79% 30.12 in 10.0 mi East 10.4 mph - N/A   Clear
4:53 AM 73.0 °F 64.9 °F 76% 30.12 in 10.0 mi East 11.5 mph - N/A   Clear
5:53 AM 73.9 °F 64.9 °F 73% 30.13 in 10.0 mi East 16.1 mph - N/A   Mostly Cloudy
6:02 AM 73.4 °F 64.4 °F 73% 30.13 in 10.0 mi East 16.1 mph 23.0 mph N/A   Scattered Clouds
6:53 AM 73.9 °F 64.0 °F 71% 30.16 in 10.0 mi ESE 15.0 mph - N/A   Partly Cloudy
7:53 AM 73.9 °F 64.9 °F 73% 30.17 in 10.0 mi ESE 17.3 mph 24.2 mph N/A   Clear
8:53 AM 75.0 °F 64.9 °F 71% 30.19 in 10.0 mi ESE 17.3 mph - N/A   Partly Cloudy
9:53 AM 75.9 °F 64.0 °F 67% 30.20 in 10.0 mi East 18.4 mph - N/A   Clear
10:53 AM 78.1 °F 64.9 °F 64% 30.22 in 10.0 mi East 16.1 mph 23.0 mph N/A   Clear
11:53 AM 78.1 °F 64.0 °F 62% 30.21 in 10.0 mi East 17.3 mph 23.0 mph N/A   Clear
12:53 PM 78.1 °F 64.0 °F 62% 30.19 in 10.0 mi East 18.4 mph 24.2 mph N/A   Clear
1:53 PM 79.0 °F 64.9 °F 62% 30.17 in 10.0 mi East 18.4 mph 24.2 mph N/A   Partly Cloudy
2:53 PM 78.1 °F 64.9 °F 64% 30.15 in 10.0 mi East 16.1 mph 23.0 mph N/A   Partly Cloudy
3:53 PM 71.1 °F 64.9 °F 81% 30.14 in 10.0 mi East 18.4 mph 24.2 mph N/A   Clear
4:53 PM 69.1 °F 66.0 °F 90% 30.13 in 10.0 mi East 19.6 mph - N/A   Partly Cloudy
5:53 PM 69.1 °F 64.9 °F 87% 30.14 in 10.0 mi East 20.7 mph - N/A   Partly Cloudy
6:53 PM 68.0 °F 64.0 °F 87% 30.14 in 10.0 mi ESE 19.6 mph 25.3 mph N/A   Clear
7:53 PM 69.1 °F 64.0 °F 84% 30.16 in 10.0 mi ESE 20.7 mph 25.3 mph N/A   Partly Cloudy
8:53 PM 68.0 °F 64.0 °F 87% 30.17 in 10.0 mi ESE 18.4 mph - N/A   Clear
9:53 PM 69.1 °F 64.9 °F 87% 30.18 in 10.0 mi East 16.1 mph - N/A   Partly Cloudy
10:53 PM 69.1 °F 66.0 °F 90% 30.18 in 10.0 mi East 16.1 mph - N/A   Partly Cloudy
11:53 PM 69.1 °F 66.0 °F 90% 30.17 in 10.0 mi ESE 19.6 mph 25.3 mph N/A   Partly Cloudy